{"data":{"norad_id":62480,"intl_designator":"2024-254U","name":"STARLINK-32743","alt_names":[],"object_type":"PAYLOAD","status":"ACTIVE","operator":null,"country":"US","launch_date":"2024-12-31","launch_site_code":"AFETR","launch_vehicle":null,"mission":null,"orbit_class":"UNKNOWN","rcs_meters":null,"size_class":null,"mass_kg":null,"dimensions":null,"purposes":["comms"],"wikipedia_slug":null,"has_3d_model":false,"image_url":null,"decayed_at":null,"tle_current":{"epoch":"2026-09-21T13:19:38.266464Z","epoch_age_seconds":83392,"freshness":"FRESH","line1":"1 62480U 24254U   26264.55530401  .00008829  00000+0  32993-3 0  9995","line2":"2 62480  43.0043 349.7438 0001060 265.8018  94.2712 15.27585082 97612","mean_motion":15.27585082,"eccentricity":0.000106,"inclination_deg":43.0043,"raan_deg":349.7438,"arg_perigee_deg":265.8018,"mean_anomaly_deg":94.2712,"bstar":0.00032993,"rev_number":9761,"period_min":94.266435105184,"perigee_km":482.30659463245,"apogee_km":483.76116285875,"semimajor_km":6861.1708787456,"source":"CELESTRAK","updated_at":"2026-09-22T09:00:49.614892Z"}}}